星链-30073 (STARLINK-30073 )

导读

STARLINK-30073是美国太空探索技术公司(SpaceX)星链互联网卫星项目中的一颗卫星,于北京时间2023年6月4日发射升空,属于星链项目扩容的组网卫星。星链计划旨在通过近地轨道卫星星座搭建全球卫星互联网,该卫星入轨后将进一步提升星链系统的全球覆盖能力与网络服务容量。

Basic Information
目录编号:
56840
目录名称:
STARLINK-30073
国际标识:
2023-079T
轨道中心:
EARTH
卫星名称:
星链-30073
卫星全名:
星链-30073 (STARLINK-30073 )
卫星状态:
在轨 (已飞行1109 天)
发射日期:
2023-06-04 UTC
国别 :
美国 (US)
星等 :
--
Orbit Information
数据来源 国际轨道数据 AOE轨道数据
星历时间 2026-06-17T12:00:02+0800
8小时前
查看轨道信息
2026-06-16T23:00:00+0800
21小时前
查看轨道信息
半长轴 6861.274km 6861.208km
偏心率 0.0001371 0.0001393
轨道倾角 43.001° 43.006°
近地点辐角 272.491° 254.426°
升交点赤经 90.585° 93.644°
平近点角 220.491° 136.129°
近地点 482.196km 482.115km
远地点 484.078km 484.027km
周期 94.269分钟 94.267分钟
每日圈数 15.275509 15.27573
Detailed Information
固有亮度:
5
最大亮度:
0.5
卫星平台:
Starlink v2.0 mini
覆盖范围:
全球
运营商:
太空探索技术公司
运营商所在国:
美国
制造商(研发单位):
太空探索技术公司
制造商所在国:
美国
使用方式:
暂无
Satellite Introduction
星链(Starlink)计划是由太空探索技术公司(SpaceX)提出的一个巨型低轨卫星互联网星座项目,计划在2019年至2024年间在太空搭建由约1.2万颗卫星组成的“星链”网络,其中1584颗将部署在地球上空550千米处的近地轨道,并从2020年开始工作。该卫星仍在工作。
2D Orbit Map
3D Orbit Map
Orbit Altitude Analysis Chart
Orbit Inclination Analysis Chart
Orbit Comprehensive Analysis Chart
View Comprehensive Chart